Location: Dunn (historical)
(35.2693°N, 90.5721°W)
Time: 02:44:24
(UTC+00:00)

Cosmos 2082 - Pass Details

Date: 13 February 2026
Orbit: 831 x 855 km, 71.0° (Epoch: 6 March)

Event Time Altitude Azimuth Distance (km) Brightness Sun altitude
Rises 12:17:53 0° 337° (NNW) 3,421 6.5 -7.3°
Reaches altitude 10° 12:20:21 10° 335° (NNW) 2,479 5.8 -6.8°
Maximum altitude 12:26:02 76° 251° (WSW) 872 3.7 -5.7°
Drops below altitude 10° 12:31:39 10° 166° (SSE) 2,449 6.5 -4.6°
Sets 12:34:04 0° 165° (SSE) 3,377 7.3 -4.1°
